Location: Berlin
(52.5170°N, 13.4000°E)
Time: 15:25:49
(UTC+02:00)

ISS - Pass Details

Date: 13 July 2018
Orbit: 402 x 408 km, 51.6° (Epoch: 21 July)

Event Time Altitude Azimuth Distance (km) Brightness Sun altitude
Exits shadow 03:30:54 - 254° (WSW) 1,602 -1.2 -9.7°
Reaches altitude 10° 03:31:13 10° 254° (WSW) 1,470 -1.4 -9.7°
Maximum altitude 03:34:30 69° 170° (S) 440 -3.8 -9.4°
Drops below altitude 10° 03:37:48 10° 87° (E) 1,475 -0.4 -9.2°
Sets 03:39:53 0° 85° (E) 2,337 0.7 -9.0°
